Pittsburg, KS

10:23 AM CDT on May 26, 2017 (GMT -0500)
Atkinson Municipal

Weather History for KPTS - August, 2013

Change the Weather History Date:

Friday, August 9, 2013

  Actual Average (KJLN) Record (KJLN)
Temperature  
Mean Temperature 73 °F -  
Max Temperature 78 °F 89 °F 102 °F (1980)
Min Temperature 68 °F 68 °F 53 °F (1989)
Cooling Degree Days 8    
Growing Degree Days 23 (Base 50)    
Moisture  
Dew Point 72 °F    
Average Humidity 95    
Maximum Humidity 100    
Minimum Humidity 73    
Precipitation  
Precipitation 0.04 in - - ()
Sea Level Pressure  
Sea Level Pressure 30.01 in    
Wind  
Wind Speed 5 mph (ENE)    
Max Wind Speed 12 mph    
Max Gust Speed -    
Visibility 9 miles    
Events Thunderstorm    
Averages and records for this station are not official NWS values.
T = Trace of Precipitation, MM = Missing Value Source: NWS Daily Summary

Daily Weather History Graph

Daily Weather History Graph

Search for Another Location

Airport or City:

Trip Planner

Search our weather history database for the weather conditions in past years. The results will help you decide how hot, cold, wet, or windy it might be!

Date:

Astronomy

Aug. 09, 2013 Rise Set
Actual Time 6:30 AM CDT 8:18 PM CDT
Civil Twilight 6:01 AM CDT 8:46 PM CDT
Nautical Twilight 5:27 AM CDT 9:20 PM CDT
Astronomical Twilight 4:51 AM CDT 9:56 PM CDT
Moon 9:12 AM CDT (8/9) 9:33 PM CDT (8/9)
Length of Visible Light 14h 44m
Length of Day
13h 47m
Waxing Crescent, 8% of the Moon is Illuminated
Aug 9
Waxing Crescent
Aug 14
First Quarter
Aug 20
Full
Aug 28
Last Quarter
Sep 5
New

Hourly Weather History & Observations

Time (CDT) Temp. Dew Point Humidity Pressure Visibility Wind Dir Wind Speed Gust Speed Precip Events Conditions
12:15 AM 73.4 °F - N/A% 29.97 in 10.0 mi ENE 8.1 mph - N/A   Mostly Cloudy
12:35 AM 73.4 °F - N/A% 29.97 in 10.0 mi ENE 6.9 mph - N/A   Scattered Clouds
12:55 AM 73.4 °F - N/A% 29.98 in 10.0 mi ENE 5.8 mph - N/A   Mostly Cloudy
1:15 AM 73.4 °F - N/A% 29.97 in 10.0 mi ENE 6.9 mph - N/A   Mostly Cloudy
1:35 AM 73.4 °F - N/A% 29.97 in 10.0 mi ENE 6.9 mph - N/A   Mostly Cloudy
1:55 AM 73.4 °F - N/A% 29.97 in 10.0 mi East 6.9 mph - N/A   Mostly Cloudy
2:15 AM 73.4 °F 73.6 °F 100% 29.95 in 10.0 mi NE 6.9 mph - N/A   Mostly Cloudy
2:35 AM 73.4 °F - N/A% 29.96 in 10.0 mi ENE 4.6 mph - N/A   Scattered Clouds
2:55 AM 73.4 °F - N/A% 29.95 in 10.0 mi ENE 4.6 mph - N/A   Scattered Clouds
3:15 AM 73.4 °F - N/A% 29.96 in 10.0 mi East 4.6 mph - N/A   Mostly Cloudy
3:35 AM 73.0 °F - N/A% 29.96 in 10.0 mi NE 5.8 mph - N/A   Overcast
3:55 AM 72.7 °F - N/A% 29.97 in 10.0 mi ENE 6.9 mph - N/A   Overcast
4:15 AM 73.4 °F - N/A% 29.98 in 10.0 mi NE 5.8 mph - 0.01 in   Overcast
4:35 AM 73.4 °F - N/A% 29.97 in 10.0 mi East 5.8 mph - 0.01 in   Overcast
4:55 AM 73.4 °F - N/A% 29.97 in 10.0 mi East 6.9 mph - 0.01 in   Overcast
5:15 AM 73.4 °F - N/A% 29.98 in 7.0 mi SSE 3.5 mph - N/A   Overcast
5:35 AM 73.4 °F - N/A% 29.98 in 7.0 mi Calm Calm - N/A Thunderstorm Overcast
5:55 AM 73.4 °F - N/A% 29.97 in 7.0 mi SSW 3.5 mph - N/A Thunderstorm Overcast
6:15 AM 73.4 °F - N/A% 29.96 in 10.0 mi SW 4.6 mph - N/A   Scattered Clouds
6:35 AM 72.7 °F 72.9 °F 100% 29.95 in 10.0 mi West 3.5 mph - N/A   Clear
6:55 AM 71.1 °F 71.4 °F 100% 29.95 in 10.0 mi Calm Calm - N/A   Clear
7:15 AM 70.9 °F 71.1 °F 100% 29.95 in 10.0 mi Calm Calm - N/A   Clear
7:35 AM 70.9 °F - N/A% 29.96 in 10.0 mi SE 3.5 mph - N/A   Clear
7:55 AM 70.9 °F - N/A% 29.99 in 10.0 mi Calm Calm - N/A   Clear
8:15 AM 70.9 °F - N/A% 30.02 in 10.0 mi Calm Calm - N/A   Scattered Clouds
8:35 AM 70.9 °F - N/A% 30.01 in 10.0 mi Calm Calm - N/A   Scattered Clouds
8:55 AM 71.2 °F - N/A% 30.01 in 10.0 mi Calm Calm - N/A   Mostly Cloudy
9:15 AM - - N/A% 30.01 in 10.0 mi Calm Calm - N/A   Mostly Cloudy
9:35 AM 72.9 °F 73.0 °F 100% 30.01 in 10.0 mi NE 4.6 mph - 0.01 in   Mostly Cloudy
9:55 AM 75.2 °F 75.2 °F 100% 30.00 in 10.0 mi NE 3.5 mph - 0.01 in   Overcast
10:15 AM 76.1 °F 76.1 °F 100% 29.99 in 10.0 mi ENE 4.6 mph - N/A   Overcast
10:35 AM 76.1 °F 75.2 °F 97% 30.00 in 10.0 mi Calm Calm - N/A   Mostly Cloudy
10:55 AM 76.1 °F 74.7 °F 95% 30.00 in 10.0 mi SE 4.6 mph - N/A   Scattered Clouds
11:15 AM 77.5 °F 74.3 °F 90% 30.00 in 10.0 mi South 4.6 mph - N/A   Clear
11:35 AM 78.4 °F 72.0 °F 80% 30.01 in 10.0 mi SSE 4.6 mph - N/A   Clear
11:55 AM 78.4 °F 69.1 °F 73% 30.01 in 10.0 mi SSE 4.6 mph - N/A   Scattered Clouds
12:15 PM 78.4 °F 70.2 °F 76% 30.02 in 10.0 mi South 5.8 mph - N/A   Mostly Cloudy
12:35 PM 77.7 °F 72.7 °F 84% 30.01 in 10.0 mi SSE 5.8 mph - N/A   Mostly Cloudy
12:55 PM 77.0 °F 71.8 °F 84% 30.02 in 10.0 mi Calm Calm - N/A   Overcast
1:15 PM 76.5 °F 74.3 °F 93% 30.02 in 5.0 mi East 6.9 mph - N/A   Mostly Cloudy
1:35 PM 76.1 °F - N/A% 30.03 in 3.0 mi NE 10.4 mph - N/A   Overcast
1:55 PM 74.8 °F - N/A% 30.03 in 4.0 mi NE 8.1 mph - N/A   Overcast
2:15 PM 74.5 °F - N/A% 30.03 in 1.8 mi NE 10.4 mph - N/A   Overcast
2:35 PM 72.7 °F - N/A% 30.03 in 3.0 mi NE 11.5 mph - N/A   Overcast
2:55 PM 71.4 °F - N/A% 30.04 in 5.0 mi NE 8.1 mph - 0.01 in   Overcast
3:15 PM 71.2 °F - N/A% 30.04 in 5.0 mi NE 10.4 mph - N/A   Overcast
3:35 PM 70.9 °F - N/A% 30.03 in 5.0 mi NE 9.2 mph - N/A   Overcast
3:55 PM 70.9 °F - N/A% 30.04 in 5.0 mi ENE 5.8 mph - N/A   Overcast
4:15 PM 70.9 °F - N/A% 30.04 in 5.0 mi NE 8.1 mph - N/A   Overcast
4:35 PM 70.9 °F - N/A% 30.04 in 4.0 mi NE 10.4 mph - N/A   Overcast
4:55 PM 70.9 °F - N/A% 30.04 in 7.0 mi NNE 9.2 mph - N/A   Overcast
5:15 PM 70.9 °F - N/A% 30.03 in 10.0 mi NE 11.5 mph - N/A   Scattered Clouds
5:35 PM 70.9 °F 71.1 °F 100% 30.04 in 10.0 mi ENE 8.1 mph - N/A   Scattered Clouds
5:55 PM 70.9 °F 71.1 °F 100% 30.04 in 10.0 mi NE 8.1 mph - N/A   Scattered Clouds
6:15 PM 70.9 °F 70.5 °F 99% 30.04 in 10.0 mi NE 6.9 mph - N/A   Clear
6:35 PM 70.9 °F 69.4 °F 95% 30.03 in 10.0 mi ENE 6.9 mph - N/A   Clear
6:55 PM 70.9 °F 69.1 °F 94% 30.03 in 10.0 mi ENE 5.8 mph - N/A   Clear
7:15 PM 70.9 °F 69.6 °F 96% 30.03 in 10.0 mi NNE 6.9 mph - N/A   Clear
7:35 PM 70.9 °F 70.5 °F 99% 30.03 in 10.0 mi ENE 5.8 mph - 0.01 in   Clear
7:55 PM 70.9 °F 70.9 °F 100% 30.04 in 10.0 mi ENE 5.8 mph - 0.01 in   Clear
8:15 PM 70.9 °F 70.9 °F 100% 30.05 in 10.0 mi NE 4.6 mph - N/A   Clear
8:35 PM 70.9 °F 71.1 °F 100% 30.04 in 10.0 mi NNE 4.6 mph - N/A   Clear
8:55 PM 70.9 °F 71.1 °F 100% 30.04 in 10.0 mi NE 3.5 mph - N/A   Clear
9:15 PM 70.9 °F 71.1 °F 100% 30.05 in 10.0 mi NNE 3.5 mph - N/A   Clear
9:35 PM 69.8 °F - N/A% 30.06 in 10.0 mi Calm Calm - N/A   Clear
9:55 PM 68.7 °F - N/A% 30.07 in 10.0 mi Calm Calm - N/A   Clear
10:15 PM 68.4 °F - N/A% 30.08 in 10.0 mi North 4.6 mph - N/A   Clear
10:35 PM 70.3 °F - N/A% 30.08 in 10.0 mi North 4.6 mph - N/A   Clear
10:55 PM 70.9 °F - N/A% 30.08 in 10.0 mi NNE 5.8 mph - N/A   Clear
11:15 PM 70.9 °F - N/A% 30.09 in 10.0 mi NNE 3.5 mph - N/A   Clear
11:35 PM 70.9 °F - N/A% 30.09 in 7.0 mi NNE 3.5 mph - N/A   Clear
11:55 PM 70.3 °F - N/A% 30.09 in 7.0 mi NE 3.5 mph - N/A   Clear